User: anonymous   Login
Location: Home
(42.5358°N, 72.7383°W)
Time: 01:23:42
(UTC-05:00)
Language:

XW-2A - Orbit

View from above orbital plane
View from above orbital plane
View from above satellite
View from above satellite

Ground track
Ground track

The orbit data is extracted from the following two-line orbital elements,

1 40903U 15049E   22026.74678370  .00008984  00000-0  17305-3 0  9997
2 40903  97.2052  85.4841 0009593 280.9501 219.9013 15.48054628357300
Epoch (UTC): 26 January 2022 17:55:22
Eccentricity: 0.0009593
inclination: 97.2052°
perigee height: 416 km
apogee height: 429 km
right ascension of ascending node: 85.4841°
argument of perigee: 280.9501°
revolutions per day: 15.48054628
mean anomaly at epoch: 219.9013°
orbit number at epoch: 35730

The dashed part of the orbit path shows where the satellite is in the earth's shadow,  

DLR